When you browse on this site, cookies collect data to enhance your experience and personalize the content and advertising you see.
Visit our Privacy Policy to learn more. By continuing to use the site, you agree to this use of cookies and data.
  • In Sweden
  • List of Countries
  • For 7 days
  • Water Temperature
  • Weather Map
  • Weather Widgets
  • user-avatar
    Login

    Hourly Weather Kendari

    Today, 29 May, Friday

    Time Temperature Precipitation Wind Pressure Humidity
    00:00 +26°C° 0.1 mm 2 mps 747 mmHg 96%
    01:00 +26°C° 0.1 mm 2 mps 747 mmHg 97%
    02:00 +26°C° 0 mm 1 mps 746 mmHg 97%
    03:00 +25°C° 0.4 mm 1 mps 746 mmHg 97%
    04:00 +25°C° 0.4 mm 1 mps 746 mmHg 97%
    05:00 +25°C° 0.4 mm 1 mps 746 mmHg 97%
    06:00 +26°C° 0.3 mm 1 mps 747 mmHg 95%
    07:00 +27°C° 0.3 mm 1 mps 747 mmHg 92%
    08:00 +28°C° 0 mm 1 mps 748 mmHg 88%
    09:00 +30°C° 0.4 mm 1 mps 748 mmHg 80%
    10:00 +32°C° 0.4 mm 1 mps 748 mmHg 71%
    11:00 +33°C° 0.4 mm 1 mps 748 mmHg 62%
    12:00 +33°C° 0.3 mm 1 mps 747 mmHg 64%
    13:00 +33°C° 0.3 mm 1 mps 746 mmHg 66%
    14:00 +32°C° 0 mm 2 mps 746 mmHg 71%
    15:00 +31°C° 1 mm 2 mps 746 mmHg 77%
    16:00 +30°C° 1 mm 1 mps 746 mmHg 83%
    17:00 +29°C° 1 mm 1 mps 746 mmHg 89%
    18:00 +28°C° 1.9 mm 1 mps 747 mmHg 91%
    19:00 +27°C° 1.9 mm 2 mps 747 mmHg 93%
    20:00 +26°C° 1.9 mm 2 mps 748 mmHg 95%
    21:00 +26°C° 0.4 mm 2 mps 748 mmHg 95%
    22:00 +26°C° 0.4 mm 1 mps 748 mmHg 95%
    23:00 +26°C° 0.4 mm 1 mps 748 mmHg 95%

    Tomorrow, 30 May, Saturday

    Time Temperature Precipitation Wind Pressure Humidity
    00:00 +26°C° 0.6 mm 1 mps 748 mmHg 95%
    01:00 +26°C° 0.6 mm 1 mps 747 mmHg 95%
    02:00 +26°C° 0.6 mm 1 mps 747 mmHg 96%
    03:00 +26°C° 0.6 mm 1 mps 747 mmHg 96%
    04:00 +25°C° 0.6 mm 1 mps 747 mmHg 96%
    05:00 +25°C° 0.6 mm 1 mps 747 mmHg 96%
    06:00 +26°C° 0 mm 1 mps 747 mmHg 94%
    07:00 +27°C° 0 mm 1 mps 748 mmHg 92%
    08:00 +28°C° 0 mm 1 mps 748 mmHg 90%
    09:00 +30°C° 0 mm 1 mps 748 mmHg 81%
    10:00 +31°C° 0 mm 1 mps 747 mmHg 71%
    11:00 +33°C° 0 mm 1 mps 747 mmHg 61%
    12:00 +32°C° 1.1 mm 1 mps 747 mmHg 69%
    13:00 +31°C° 1.1 mm 2 mps 746 mmHg 78%
    14:00 +30°C° 1.1 mm 3 mps 745 mmHg 86%
    15:00 +29°C° 0.5 mm 3 mps 745 mmHg 87%
    16:00 +29°C° 0.5 mm 3 mps 745 mmHg 88%
    17:00 +29°C° 0.5 mm 3 mps 745 mmHg 89%
    18:00 +28°C° 0.2 mm 2 mps 746 mmHg 91%
    19:00 +27°C° 0.2 mm 2 mps 747 mmHg 93%
    20:00 +26°C° 0.2 mm 2 mps 747 mmHg 94%
    21:00 +26°C° 0.4 mm 2 mps 747 mmHg 95%
    22:00 +26°C° 0.4 mm 1 mps 747 mmHg 95%
    23:00 +26°C° 0.4 mm 1 mps 747 mmHg 95%

    Day after tomorrow, 31 May, Sunday

    Time Temperature Precipitation Wind Pressure Humidity
    00:00 +26°C° 0.3 mm 1 mps 747 mmHg 96%
    01:00 +25°C° 0.3 mm 1 mps 747 mmHg 96%
    02:00 +25°C° 0.3 mm 1 mps 747 mmHg 96%
    03:00 +25°C° 0.4 mm 1 mps 747 mmHg 96%
    04:00 +25°C° 0.4 mm 1 mps 746 mmHg 96%
    05:00 +25°C° 0.4 mm 1 mps 746 mmHg 96%
    06:00 +26°C° 0.7 mm 1 mps 747 mmHg 95%
    07:00 +26°C° 0.7 mm 1 mps 747 mmHg 94%
    08:00 +27°C° 0.7 mm 1 mps 748 mmHg 94%
    09:00 +28°C° 0.6 mm 1 mps 748 mmHg 87%
    10:00 +29°C° 0.6 mm 1 mps 747 mmHg 81%
    11:00 +29°C° 0.6 mm 0 mps 747 mmHg 75%
    12:00 +31°C° 1.3 mm 1 mps 747 mmHg 78%
    13:00 +30°C° 1.3 mm 2 mps 746 mmHg 81%
    14:00 +30°C° 1.3 mm 3 mps 746 mmHg 84%
    15:00 +29°C° 0.6 mm 3 mps 746 mmHg 87%
    16:00 +28°C° 0.6 mm 3 mps 745 mmHg 90%
    17:00 +27°C° 0.6 mm 3 mps 745 mmHg 93%
    18:00 +27°C° 0.1 mm 3 mps 746 mmHg 94%
    19:00 +26°C° 0.1 mm 2 mps 746 mmHg 94%
    20:00 +26°C° 0.1 mm 2 mps 747 mmHg 95%
    21:00 +26°C° 0.5 mm 2 mps 747 mmHg 95%
    22:00 +25°C° 0.5 mm 2 mps 747 mmHg 96%
    23:00 +25°C° 0.5 mm 2 mps 747 mmHg 96%

    1 June, Monday

    Time Temperature Precipitation Wind Pressure Humidity
    00:00 +25°C° 1.5 mm 2 mps 747 mmHg 97%
    01:00 +25°C° 1.5 mm 2 mps 747 mmHg 97%
    02:00 +25°C° 1.5 mm 2 mps 746 mmHg 97%
    03:00 +25°C° 2.6 mm 2 mps 746 mmHg 97%
    04:00 +25°C° 2.6 mm 2 mps 746 mmHg 98%
    05:00 +25°C° 2.6 mm 2 mps 746 mmHg 98%
    06:00 +25°C° 0.4 mm 2 mps 747 mmHg 98%
    07:00 +25°C° 0.4 mm 1 mps 747 mmHg 97%
    08:00 +25°C° 0.4 mm 1 mps 748 mmHg 97%
    09:00 +27°C° 0 mm 1 mps 747 mmHg 91%
    10:00 +28°C° 0 mm 1 mps 747 mmHg 86%
    11:00 +29°C° 0 mm 1 mps 747 mmHg 80%
    12:00 +29°C° 0 mm 1 mps 746 mmHg 77%
    13:00 +30°C° 0 mm 1 mps 746 mmHg 74%
    14:00 +31°C° 0 mm 1 mps 745 mmHg 71%
    15:00 +30°C° 0.1 mm 1 mps 745 mmHg 76%
    16:00 +30°C° 0.1 mm 1 mps 745 mmHg 81%
    17:00 +29°C° 0.1 mm 1 mps 745 mmHg 86%
    18:00 +28°C° 0 mm 1 mps 745 mmHg 89%
    19:00 +27°C° 0 mm 1 mps 746 mmHg 91%
    20:00 +26°C° 0 mm 2 mps 746 mmHg 93%
    21:00 +26°C° 0 mm 2 mps 747 mmHg 94%
    22:00 +25°C° 0 mm 2 mps 747 mmHg 95%
    23:00 +25°C° 0 mm 2 mps 747 mmHg 96%

    2 June, Tuesday

    Time Temperature Precipitation Wind Pressure Humidity
    00:00 +25°C° 0.1 mm 2 mps 746 mmHg 96%
    01:00 +25°C° 0.1 mm 2 mps 746 mmHg 96%
    02:00 +25°C° 0.1 mm 2 mps 746 mmHg 97%
    03:00 +25°C° 0.7 mm 2 mps 746 mmHg 97%
    04:00 +25°C° 0.7 mm 2 mps 746 mmHg 97%
    05:00 +25°C° 0.7 mm 2 mps 746 mmHg 97%
    06:00 +25°C° 1.5 mm 2 mps 746 mmHg 96%
    07:00 +26°C° 1.5 mm 2 mps 746 mmHg 95%
    08:00 +26°C° 1.5 mm 2 mps 747 mmHg 94%
    09:00 +26°C° 2.8 mm 2 mps 747 mmHg 95%
    10:00 +26°C° 2.8 mm 2 mps 747 mmHg 95%
    11:00 +26°C° 2.8 mm 2 mps 747 mmHg 96%
    12:00 +26°C° 2 mm 2 mps 746 mmHg 95%
    13:00 +26°C° 2 mm 2 mps 746 mmHg 95%
    14:00 +27°C° 2 mm 3 mps 745 mmHg 94%
    15:00 +27°C° 0.2 mm 3 mps 745 mmHg 93%
    16:00 +27°C° 0.2 mm 3 mps 745 mmHg 92%
    17:00 +27°C° 0.2 mm 3 mps 745 mmHg 90%
    18:00 +27°C° 0 mm 3 mps 746 mmHg 91%
    19:00 +26°C° 0 mm 3 mps 746 mmHg 92%
    20:00 +25°C° 0 mm 3 mps 747 mmHg 93%
    21:00 +25°C° 0 mm 3 mps 747 mmHg 93%
    22:00 +25°C° 0 mm 3 mps 747 mmHg 94%
    23:00 +24°C° 0 mm 3 mps 747 mmHg 94%

    3 June, Wednesday

    Time Temperature Precipitation Wind Pressure Humidity
    00:00 +24°C° 0 mm 3 mps 747 mmHg 94%
    01:00 +24°C° 0 mm 3 mps 747 mmHg 94%
    02:00 +24°C° 0 mm 3 mps 746 mmHg 95%
    03:00 +24°C° 0.1 mm 3 mps 746 mmHg 95%
    04:00 +24°C° 0.1 mm 2 mps 746 mmHg 96%
    05:00 +23°C° 0.1 mm 2 mps 746 mmHg 96%
    06:00 +25°C° 0 mm 2 mps 747 mmHg 93%
    07:00 +26°C° 0 mm 2 mps 747 mmHg 90%
    08:00 +27°C° 0 mm 2 mps 748 mmHg 87%
    09:00 +28°C° 0.1 mm 2 mps 748 mmHg 78%
    10:00 +30°C° 0.1 mm 2 mps 747 mmHg 69%
    11:00 +32°C° 0.1 mm 2 mps 747 mmHg 60%
    12:00 +31°C° 0 mm 3 mps 747 mmHg 60%
    13:00 +31°C° 0 mm 3 mps 746 mmHg 60%
    14:00 +32°C° 0 mm 4 mps 746 mmHg 61%
    15:00 +30°C° 0 mm 4 mps 746 mmHg 66%
    16:00 +29°C° 0 mm 4 mps 746 mmHg 71%
    17:00 +28°C° 0 mm 4 mps 746 mmHg 76%
    18:00 +27°C° 0 mm 4 mps 746 mmHg 80%
    19:00 +26°C° 0 mm 3 mps 747 mmHg 85%
    20:00 +25°C° 0 mm 3 mps 747 mmHg 89%
    21:00 +25°C° 0 mm 3 mps 747 mmHg 90%
    22:00 +24°C° 0 mm 2 mps 747 mmHg 91%
    23:00 +24°C° 0 mm 2 mps 747 mmHg 92%
    Show more